カタログに戻る

BREEZE-M DEB

運用中HEO
NORAD 37205·DEBRIS·🇷🇺 Russia

打ち上げ Mar 14, 2008 から Baikonur Cosmodrome

Loading…

次のパス (今後24時間)

TLE

最新Source: Space-Track

元期: Sep 13, 2026, 07:30 UTC

1 37205U 08011K   26256.31265402 -.00000117  00000-0  00000-0 0  9991
2 37205  49.3097  21.8123 6365404 210.8143  87.7463  3.05953192 24115

AllMySatでBREEZE-M DEBをリアルタイム追跡

Download on the App Store